Corpus Christi, TX

7:53 AM CST on February 10, 2016 (GMT -0600)
Corpus Christi Naval Air Station-Truax

Weather History for KNGP - May, 2013

Change the Weather History Date:

Wednesday, May 22, 2013

  Actual Average Record
Temperature  
Mean Temperature 80 °F -  
Max Temperature 84 °F 83 °F 87 °F (2005)
Min Temperature 77 °F 72 °F 60 °F (2001)
Cooling Degree Days 16    
Growing Degree Days 30 (Base 50)    
Moisture  
Dew Point 76 °F    
Average Humidity 88    
Maximum Humidity 100    
Minimum Humidity 69    
Precipitation  
Precipitation 0.00 in - - ()
Sea Level Pressure  
Sea Level Pressure 29.83 in    
Wind  
Wind Speed 11 mph (SE)    
Max Wind Speed 15 mph    
Max Gust Speed -    
Visibility 7 miles    
Events      
Averages and records for this station are not official NWS values.
T = Trace of Precipitation, MM = Missing Value Source: NWS Daily Summary

Daily Weather History Graph

Daily Weather History Graph

Search for Another Location

Airport or City:

Trip Planner

Search our weather history database for the weather conditions in past years. The results will help you decide how hot, cold, wet, or windy it might be!

Date:

Astronomy

May. 22, 2013 Rise Set
Actual Time 6:36 AM CDT 8:15 PM CDT
Civil Twilight 6:10 AM CDT 8:41 PM CDT
Nautical Twilight 5:39 AM CDT 9:12 PM CDT
Astronomical Twilight 5:07 AM CDT 9:44 PM CDT
Moon 5:49 PM CDT (5/22) 4:27 AM CDT (5/22)
Length of Visible Light 14h 30m
Length of Day
13h 38m
Waxing Gibbous, 91% of the Moon is Illuminated
May 22
Waxing Gibbous
May 24
Full
May 31
Last Quarter
Jun 8
New
Jun 16
First Quarter

Hourly Weather History & Observations

Time (CDT) Temp. Heat Index Dew Point Humidity Pressure Visibility Wind Dir Wind Speed Gust Speed Precip Events Conditions
12:56 AM 78.1 °F - 77.0 °F 96% 29.79 in 6.0 mi SE 9.2 mph - N/A   Overcast
1:30 AM 77.0 °F - 75.2 °F 94% 29.79 in 5.0 mi SE 6.9 mph - N/A   Overcast
1:56 AM 77.0 °F - 75.9 °F 96% 29.79 in 5.0 mi SE 6.9 mph - N/A   Overcast
2:07 AM 77.0 °F - 75.2 °F 94% 29.78 in 5.0 mi SE 8.1 mph - N/A   Overcast
2:15 AM 77.0 °F - 75.2 °F 94% 29.79 in 5.0 mi SE 10.4 mph - N/A   Overcast
2:41 AM 77.0 °F - 77.0 °F 100% 29.78 in 4.0 mi SE 11.5 mph - N/A   Overcast
2:56 AM 77.0 °F - 77.0 °F 100% 29.78 in 4.0 mi SE 11.5 mph - N/A   Overcast
3:37 AM 77.0 °F - 77.0 °F 100% 29.78 in 5.0 mi SE 10.4 mph - N/A   Mostly Cloudy
4:56 AM 77.0 °F - 75.9 °F 96% 29.77 in 5.0 mi SE 13.8 mph - N/A   Scattered Clouds
5:56 AM 77.0 °F - 75.9 °F 96% 29.79 in 6.0 mi SSE 10.4 mph - N/A   Clear
6:56 AM 78.1 °F - 75.9 °F 93% 29.81 in 4.0 mi SSE 12.7 mph - N/A   Mostly Cloudy
7:42 AM 78.8 °F - 77.0 °F 94% 29.83 in 4.0 mi SE 9.2 mph - N/A   Mostly Cloudy
7:56 AM 78.1 °F - 75.9 °F 93% 29.83 in 4.0 mi SE 6.9 mph - N/A   Mostly Cloudy
7:59 AM 78.8 °F - 75.2 °F 89% 29.84 in 4.0 mi SE 6.9 mph - N/A   Mostly Cloudy
8:56 AM 80.1 °F 85.4 °F 75.9 °F 87% 29.86 in 6.0 mi SE 10.4 mph - N/A   Mostly Cloudy
9:56 AM 81.0 °F 87.9 °F 77.0 °F 88% 29.87 in 6.0 mi ESE 11.5 mph - N/A   Overcast
10:56 AM 82.0 °F 89.4 °F 75.9 °F 82% 29.88 in 6.0 mi SE 11.5 mph - N/A   Haze
11:37 AM 84.2 °F 92.3 °F 75.2 °F 74% 29.88 in 7.0 mi ESE 12.7 mph - N/A   Overcast
11:56 AM 82.9 °F 89.4 °F 73.9 °F 74% 29.88 in 7.0 mi SE 15.0 mph - N/A   Overcast
12:56 PM 84.9 °F 92.1 °F 73.9 °F 69% 29.88 in 6.0 mi SE 12.7 mph - N/A   Haze
1:56 PM 84.0 °F 92.6 °F 75.9 °F 76% 29.88 in 6.0 mi ESE 12.7 mph - N/A   Haze
2:56 PM 84.0 °F 92.6 °F 75.9 °F 76% 29.86 in 8.0 mi ESE 12.7 mph - N/A   Overcast
3:56 PM 82.9 °F 90.8 °F 75.9 °F 79% 29.84 in 9.0 mi SE 15.0 mph - N/A   Overcast
4:56 PM 82.9 °F 90.8 °F 75.9 °F 79% 29.82 in 8.0 mi SE 12.7 mph - N/A   Overcast
5:56 PM 82.0 °F 88.6 °F 75.0 °F 79% 29.81 in 10.0 mi SE 11.5 mph - N/A   Mostly Cloudy
6:56 PM 81.0 °F 86.7 °F 75.0 °F 82% 29.81 in 10.0 mi SE 12.7 mph - N/A   Mostly Cloudy
7:39 PM 78.8 °F - 75.2 °F 89% 29.82 in 10.0 mi ESE 13.8 mph - N/A   Mostly Cloudy
7:56 PM 79.0 °F - 75.9 °F 90% 29.83 in 7.0 mi SE 13.8 mph - N/A   Mostly Cloudy
8:19 PM 78.8 °F - 75.2 °F 89% 29.83 in 7.0 mi ESE 10.4 mph - N/A   Overcast
8:56 PM 78.1 °F - 75.9 °F 93% 29.84 in 9.0 mi SE 11.5 mph - N/A   Overcast
9:15 PM 78.8 °F - 75.2 °F 89% 29.85 in 9.0 mi ESE 12.7 mph - N/A   Overcast
9:56 PM 78.1 °F - 75.9 °F 93% 29.86 in 10.0 mi SE 15.0 mph - N/A   Overcast
10:56 PM 78.1 °F - 75.0 °F 90% 29.88 in 10.0 mi ESE 13.8 mph - N/A   Mostly Cloudy
11:37 PM 78.8 °F - 75.2 °F 89% 29.89 in 10.0 mi SE 13.8 mph - N/A   Overcast
11:56 PM 78.1 °F - 75.9 °F 93% 29.88 in 10.0 mi ESE 15.0 mph - N/A   Overcast